Terminal Aerodrome Forecast
Issued by NWS Charleston, WV

Current Version | Previous Version | Text Only | Print | Product List | Glossary Off
Versions: 1 2 3 4 5 6 7 8 9 10 11 12 13 14 15 16 17 18 19 20 21 22 23 24 25 26 27

000
FTUS41 KRLX 130800 AAA
TAFPKB
TAF AMD
KPKB 130803Z 1308/1406 00000KT P6SM VCSH OVC025
      TEMPO 1308/1309 SCT025 OVC050
     FM131100 VRB03KT 6SM BR OVC025
     FM131500 30006KT P6SM OVC020
     FM131600 30006KT P6SM BKN020
     FM131800 30007KT P6SM BKN025
     FM132100 31007KT P6SM SCT030=

USA.gov is the U.S. government's official web portal to all federal, state and local government web resources and services.